Weather History for North Padre Island, TX

Change the Weather History Date:

Wednesday, March 6, 2013

  Actual Average Record
Temperature  
Mean Temperature 60 °F -  
Max Temperature 62 °F - - ()
Min Temperature 59 °F - - ()
Degree Days  
Heating Degree Days 4    
Growing Degree Days 10 (Base 50)    
Moisture  
Dew Point 45 °F    
Average Humidity 55    
Maximum Humidity 72    
Minimum Humidity 34    
Precipitation  
Precipitation 0.00 in - - ()
Sea Level Pressure  
Sea Level Pressure 30.29 in    
Wind  
Wind Speed 11 mph (NE)    
Max Wind Speed 14 mph    
Max Gust Speed 20 mph    
Visibility 10 miles    
Events      
T = Trace of Precipitation, MM = Missing Value Source: NWS Daily Summary

Daily Weather History Graph

Daily Weather History Graph

Search for Another Location

Airport:

Trip Planner

Search our weather history database for the weather conditions in past years. The results will help you decide how hot, cold, wet, or windy it might be!

Date:

Astronomy

Mar. 06, 2013 Rise Set
Actual Time 6:46 AM CST 6:31 PM CST
Civil Twilight 6:23 AM CST 6:55 PM CST
Nautical Twilight 5:56 AM CST 7:22 PM CST
Astronomical Twilight 5:29 AM CST 7:48 PM CST
Moon 2:33 AM CST (3/6) 1:36 PM CST (3/6)
Length of Visible Light 12h 31m
Length of Day
11h 45m
Waning Crescent, 29% of the Moon is Illuminated
Mar 6
Waning Crescent
Mar 11
New
Mar 19
First Quarter
Mar 27
Full
Apr 2
Last Quarter

Hourly Weather History & Observations

Time (CST) Temp. Dew Point Humidity Pressure Visibility Wind Dir Wind Speed Gust Speed Precip Events Conditions
12:15 AM 62.6 °F 37.4 °F 39% 30.28 in 10.0 mi North 12.7 mph - N/A   Clear
12:35 AM 62.6 °F 33.8 °F 34% 30.28 in 10.0 mi North 12.7 mph 18.4 mph N/A   Unknown
12:55 AM 62.6 °F 33.8 °F 34% 30.28 in 10.0 mi North 12.7 mph - N/A   Unknown
1:15 AM 62.6 °F 37.4 °F 39% 30.28 in 10.0 mi North 12.7 mph - N/A   Unknown
1:35 AM 62.6 °F 37.4 °F 39% 30.28 in 10.0 mi North 12.7 mph 19.6 mph N/A   Unknown
1:55 AM 62.6 °F 39.2 °F 42% 30.28 in 10.0 mi North 12.7 mph 19.6 mph N/A   Unknown
2:15 AM 60.8 °F 39.2 °F 45% 30.28 in 10.0 mi North 12.7 mph 18.4 mph N/A   Clear
2:35 AM 60.8 °F 39.2 °F 45% 30.28 in 10.0 mi North 10.4 mph 17.3 mph N/A   Clear
2:55 AM 60.8 °F 37.4 °F 42% 30.27 in 10.0 mi North 12.7 mph - N/A   Clear
3:15 AM 60.8 °F 37.4 °F 42% 30.27 in 10.0 mi North 10.4 mph 17.3 mph N/A   Clear
3:35 AM 60.8 °F 39.2 °F 45% 30.27 in 10.0 mi North 11.5 mph 17.3 mph N/A   Unknown
3:55 AM 60.8 °F 41.0 °F 48% 30.27 in 10.0 mi North 11.5 mph - N/A   Unknown
4:15 AM 60.8 °F 39.2 °F 45% 30.28 in 10.0 mi North 10.4 mph - N/A   Unknown
4:35 AM 60.8 °F 41.0 °F 48% 30.29 in 10.0 mi North 10.4 mph - N/A   Unknown
4:55 AM 60.8 °F 41.0 °F 48% 30.29 in 10.0 mi North 10.4 mph - N/A   Unknown
5:15 AM 60.8 °F 41.0 °F 48% 30.30 in 10.0 mi NNE 9.2 mph 16.1 mph N/A   Unknown
5:35 AM 59.0 °F 41.0 °F 51% 30.30 in 10.0 mi NNE 10.4 mph - N/A   Unknown
5:55 AM 60.8 °F 42.8 °F 52% 30.31 in 10.0 mi NNE 8.1 mph 15.0 mph N/A   Unknown
6:15 AM 60.8 °F 42.8 °F 52% 30.32 in 10.0 mi NNE 9.2 mph - N/A   Unknown
6:35 AM 60.8 °F 42.8 °F 52% 30.33 in 10.0 mi NNE 11.5 mph 18.4 mph N/A   Unknown
6:55 AM 60.8 °F 42.8 °F 52% 30.33 in 9.0 mi NNE 9.2 mph 17.3 mph N/A   Unknown
7:15 AM 60.8 °F 42.8 °F 52% 30.34 in 9.0 mi NNE 11.5 mph 19.6 mph N/A   Clear
7:35 AM 60.8 °F 42.8 °F 52% 30.35 in - NNE 9.2 mph 15.0 mph N/A   Unknown
7:55 AM 60.8 °F 42.8 °F 52% 30.35 in 10.0 mi NNE 10.4 mph 18.4 mph N/A   Unknown
8:15 AM 60.8 °F 42.8 °F 52% 30.36 in 10.0 mi NNE 6.9 mph 15.0 mph N/A   Clear
8:35 AM 60.8 °F 42.8 °F 52% 30.36 in 10.0 mi NNE 9.2 mph 16.1 mph N/A   Clear
8:55 AM 60.8 °F 44.6 °F 55% 30.37 in 9.0 mi NNE 6.9 mph 17.3 mph N/A   Clear
9:15 AM 60.8 °F 44.6 °F 55% 30.37 in 9.0 mi NNE 6.9 mph 13.8 mph N/A   Clear
9:35 AM 60.8 °F 44.6 °F 55% 30.37 in 9.0 mi NNE 9.2 mph - N/A   Clear
9:55 AM 60.8 °F 44.6 °F 55% 30.37 in 10.0 mi NNE 9.2 mph 15.0 mph N/A   Clear
10:15 AM 60.8 °F 44.6 °F 55% 30.38 in 10.0 mi NNE 10.4 mph - N/A   Clear
10:55 AM 60.8 °F 44.6 °F 55% 30.37 in 10.0 mi NNE 10.4 mph 16.1 mph N/A   Clear
11:15 AM 60.8 °F 46.4 °F 59% 30.37 in 9.0 mi NNE 9.2 mph 17.3 mph N/A   Clear
11:35 AM 60.8 °F 44.6 °F 55% 30.37 in 9.0 mi NNE 8.1 mph 15.0 mph N/A   Clear
11:55 AM 60.8 °F 44.6 °F 55% 30.35 in 10.0 mi NNE 13.8 mph - N/A   Clear
12:15 PM 60.8 °F 44.6 °F 55% 30.35 in 10.0 mi NE 10.4 mph 17.3 mph N/A   Clear
12:55 PM 60.8 °F 44.6 °F 55% 30.34 in 10.0 mi NNE 5.8 mph 12.7 mph N/A   Clear
1:15 PM 60.8 °F 44.6 °F 55% 30.33 in 10.0 mi NNE 6.9 mph - N/A   Clear
1:35 PM 60.8 °F 44.6 °F 55% 30.32 in 10.0 mi NNE 5.8 mph 12.7 mph N/A   Clear
1:55 PM 60.8 °F 44.6 °F 55% 30.32 in 10.0 mi NNE 6.9 mph - N/A   Clear
2:15 PM 60.8 °F 46.4 °F 59% 30.31 in 10.0 mi Calm Calm 11.5 mph N/A   Clear
2:35 PM 60.8 °F 46.4 °F 59% 30.30 in 10.0 mi NE 6.9 mph 13.8 mph N/A   Unknown
2:55 PM 60.8 °F 46.4 °F 59% 30.29 in 9.0 mi NNE 5.8 mph - N/A   Clear
3:15 PM 60.8 °F 46.4 °F 59% 30.28 in 10.0 mi NNE 9.2 mph - N/A   Clear
3:35 PM 60.8 °F 46.4 °F 59% 30.28 in 10.0 mi NNE 5.8 mph - N/A   Clear
3:55 PM 60.8 °F 46.4 °F 59% 30.27 in 9.0 mi NE 8.1 mph - N/A   Clear
4:15 PM 60.8 °F 48.2 °F 63% 30.26 in 10.0 mi NE 11.5 mph - N/A   Clear
4:35 PM 60.8 °F 48.2 °F 63% 30.25 in 10.0 mi NE 12.7 mph - N/A   Clear
4:55 PM 60.8 °F 48.2 °F 63% 30.25 in 10.0 mi NE 10.4 mph - N/A   Clear
5:15 PM 60.8 °F 48.2 °F 63% 30.24 in 10.0 mi NE 12.7 mph - N/A   Clear
5:35 PM 60.8 °F 48.2 °F 63% 30.23 in 9.0 mi NE 11.5 mph - N/A   Clear
5:55 PM 60.8 °F 48.2 °F 63% 30.24 in 10.0 mi ENE 10.4 mph - N/A   Clear
6:15 PM 60.8 °F 48.2 °F 63% 30.24 in 9.0 mi NE 11.5 mph - N/A   Clear
6:35 PM 60.8 °F 48.2 °F 63% 30.24 in 9.0 mi ENE 10.4 mph - N/A   Clear
6:55 PM 62.6 °F 48.2 °F 59% 30.24 in 10.0 mi ENE 10.4 mph - N/A   Partly Cloudy
7:15 PM 62.6 °F 48.2 °F 59% 30.24 in 10.0 mi ENE 9.2 mph - N/A   Mostly Cloudy
7:35 PM 62.6 °F 50.0 °F 63% 30.25 in 10.0 mi ENE 11.5 mph - N/A   Mostly Cloudy
7:55 PM 62.6 °F 48.2 °F 59% 30.24 in 10.0 mi East 11.5 mph - N/A   Unknown
8:15 PM 62.6 °F 50.0 °F 63% 30.24 in 10.0 mi East 11.5 mph - N/A   Unknown
8:35 PM 62.6 °F 50.0 °F 63% 30.25 in 10.0 mi East 10.4 mph - N/A   Unknown
8:55 PM 62.6 °F 50.0 °F 63% 30.25 in 10.0 mi East 11.5 mph - N/A   Partly Cloudy
9:15 PM 62.6 °F 50.0 °F 63% 30.26 in 10.0 mi ESE 8.1 mph - N/A   Clear
9:35 PM 62.6 °F 50.0 °F 63% 30.26 in 10.0 mi ESE 8.1 mph - N/A   Clear
9:55 PM 62.6 °F 50.0 °F 63% 30.25 in 10.0 mi East 9.2 mph - N/A   Clear
10:15 PM 62.6 °F 50.0 °F 63% 30.26 in 10.0 mi East 8.1 mph - N/A   Clear
10:35 PM 62.6 °F 50.0 °F 63% 30.25 in 10.0 mi ESE 9.2 mph - N/A   Clear
10:55 PM 62.6 °F 51.8 °F 68% 30.24 in 10.0 mi East 8.1 mph - N/A   Clear
11:15 PM 62.6 °F 51.8 °F 68% 30.24 in 10.0 mi ESE 10.4 mph - N/A   Clear
11:35 PM 62.6 °F 51.8 °F 68% 30.23 in 10.0 mi East 10.4 mph - N/A   Clear
11:55 PM 62.6 °F 53.6 °F 72% 30.22 in 10.0 mi East 9.2 mph - N/A   Clear